FW2073 Weather Reports


time (UTC)temp
F
wind
direction
speed
knots
gust
knots
rain 1hr
in
rain 24hr
in
rain mn
in
humidity
%
barometer
mb
20260507151528 47 38 1.7 11.3 0.00 0.69 0.00 71 1007.3
20260507150023 45 84 0.0 0.9 0.00 0.69 0.00 81 1007.4
20260507144527 46 112 0.0 5.2 0.00 0.69 0.00 84 1007.3
20260507143020 46 96 0.0 2.6 0.00 0.75 0.00 88 1007.4
20260507141515 46 68 0.0 4.3 0.00 0.75 0.00 90 1007.5
20260507140011 44 120 0.0 1.7 0.00 0.75 0.00 94 1007.4
20260507134509 42 105 0.0 4.3 0.00 0.75 0.00 100 1007.6
20260507133007 42 75 0.0 0.0 0.00 0.84 0.00 100 1007.7
20260507131502 42 289 0.0 0.0 0.00 0.84 0.00 100 1007.6
20260507130002 41 286 0.0 0.0 0.00 0.84 0.00 100 1007.8
20260507124620 42 271 0.0 0.0 0.00 0.84 0.00 100 1007.7
20260507123109 41 269 0.0 0.0 0.00 0.86 0.00 100 1007.7
20260507121601 41 262 0.0 0.0 0.00 0.86 0.00 100 1007.7
20260507120052 41 276 0.0 0.0 0.00 0.86 0.00 100 1007.6
20260507114554 40 200 0.0 0.0 0.00 0.86 0.00 100 1007.5
20260507113049 40 277 0.0 0.0 0.00 0.86 0.00 100 1007.6
20260507111547 39 356 0.0 0.0 0.00 0.86 0.00 100 1007.4
20260507110044 39 297 0.0 0.0 0.00 0.86 0.00 100 1007.5
20260507104543 39 280 0.0 0.0 0.00 0.86 0.00 100 1007.6
20260507103040 39 280 0.0 0.0 0.00 0.86 0.00 100 1007.4
20260507101545 38 280 0.0 0.0 0.00 0.86 0.00 100 1007.4
20260507100048 38 280 0.0 0.0 0.00 0.86 0.00 100 1007.2
20260507094536 38 280 0.0 0.0 0.00 0.86 0.00 100 1007.5
20260507093033 38 269 0.0 0.0 0.00 0.87 0.86 100 1007.4
20260507091531 39 269 0.0 0.0 0.00 0.87 0.86 100 1007.1
20260507090031 39 264 0.0 0.0 0.00 0.87 0.86 100 1007.2
20260507084526 39 264 0.0 0.0 0.00 0.87 0.86 100 1007.3
20260507083029 39 264 0.0 0.0 0.00 0.88 0.86 100 1007.4
20260507081525 39 264 0.0 0.0 0.00 0.88 0.86 100 1007.2
20260507080055 39 70 0.0 0.0 0.00 0.88 0.86 100 1007.1
20260507074606 39 70 0.0 0.0 0.00 0.88 0.86 100 1007.2
20260507073059 39 70 0.0 0.0 0.00 0.92 0.86 100 1007.1
20260507071550 40 310 0.0 0.0 0.00 0.92 0.86 100 1007.1
20260507070050 40 293 0.0 0.0 0.00 0.92 0.86 100 1007.0
20260507064548 40 8 0.0 0.0 0.00 0.92 0.86 100 1007.1
20260507063049 40 265 0.0 0.0 0.00 0.96 0.86 100 1007.0
20260507061545 40 330 0.0 0.0 0.00 0.96 0.86 100 1007.3
20260507060043 40 103 0.0 0.0 0.00 0.96 0.86 100 1007.3
20260507054544 40 308 0.0 0.0 0.00 0.96 0.86 100 1006.7
20260507053039 40 200 0.0 0.0 0.00 0.99 0.86 100 1007.5
20260507051537 41 147 0.0 0.0 0.00 0.99 0.86 100 1007.3
20260507050038 41 147 0.0 0.0 0.00 0.99 0.86 100 1007.4
20260507044538 42 250 0.0 0.0 0.00 0.99 0.86 100 1007.7
20260507043030 42 87 0.0 0.0 0.00 1.15 0.86 100 1007.6
20260507041537 42 115 0.0 0.0 0.00 1.15 0.86 100 1007.4
20260507040029 42 102 0.0 0.0 0.00 1.15 0.86 100 1007.9
20260507034528 42 111 0.0 0.0 0.00 1.15 0.86 100 1007.8
20260507033028 42 111 0.0 0.0 0.01 1.15 0.86 100 1007.8
20260507031527 42 82 0.0 0.0 0.02 1.15 0.86 100 1007.5
20260507030024 43 81 0.0 0.0 0.04 1.15 0.86 100 1007.7
20260507024523 43 79 0.0 0.0 0.06 1.15 0.86 100 1007.6
20260507023019 43 90 0.0 0.0 0.05 1.14 0.85 100 1008.1
20260507021519 43 90 0.0 0.0 0.04 1.13 0.84 100 1008.2
20260507020017 43 90 0.0 0.0 0.04 1.12 0.82 100 1008.1
20260507014519 43 90 0.0 0.0 0.03 1.10 0.80 100 1008.1
20260507013021 43 104 0.0 0.0 0.04 1.10 0.80 100 1007.9
20260507011518 43 98 0.0 0.0 0.04 1.10 0.80 100 1007.5
20260507010014 43 98 0.0 0.0 0.02 1.08 0.78 100 1007.7
20260507004529 43 98 0.0 0.0 0.01 1.07 0.77 100 1007.5
20260507003010 43 98 0.0 0.0 0.00 1.06 0.76 100 1006.7
20260507001510 43 127 0.0 0.0 0.00 1.06 0.76 100 1006.6
20260507000013 43 107 0.0 0.0 0.00 1.06 0.76 99 1006.6
20260506234508 43 130 0.0 0.0 0.00 1.06 0.76 100 1006.5
20260506233037 43 107 0.0 0.0 0.00 1.06 0.76 100 1006.7
20260506231548 43 100 0.0 0.0 0.00 1.06 0.76 100 1006.5
20260506230049 44 114 0.0 0.0 0.00 1.06 0.76 100 1006.4
20260506224532 44 271 0.0 0.0 0.01 1.06 0.76 100 1006.1
20260506223045 44 121 0.0 0.0 0.01 1.06 0.76 100 1006.0
20260506221531 44 167 0.0 0.0 0.03 1.06 0.76 100 1005.8
20260506220030 44 269 0.0 0.0 0.08 1.06 0.76 100 1005.8
20260506214527 44 210 0.0 0.0 0.09 1.05 0.75 100 1005.7
20260506213029 44 236 0.0 0.0 0.09 1.05 0.74 100 1005.6
20260506211537 45 273 0.0 0.0 0.09 1.04 0.73 100 1005.6
20260506210030 45 231 0.0 0.0 0.06 0.99 0.68 100 1005.5
20260506204523 45 162 0.0 0.0 0.04 0.97 0.66 100 1005.3
20260506203029 45 210 0.0 0.0 0.03 1.02 0.65 100 1005.2
20260506201531 45 83 0.0 0.0 0.02 1.01 0.64 100 1005.2
20260506200021 45 255 0.0 0.0 0.01 0.99 0.62 99 1005.1
20260506194525 45 133 0.0 0.0 0.01 0.99 0.62 100 1005.1
20260506193018 46 257 0.0 0.0 0.03 0.99 0.62 100 1005.2
20260506191517 46 223 0.0 0.0 0.05 0.99 0.62 100 1005.2
20260506190016 45 141 0.0 0.0 0.06 0.98 0.61 100 1005.5
20260506184513 44 122 0.0 0.9 0.10 0.98 0.61 100 1005.6
20260506183021 44 93 0.0 0.0 0.11 0.96 0.59 100 1005.5
20260506181511 45 248 0.0 0.0 0.11 0.94 0.56 100 1005.6
20260506180011 46 271 0.0 0.0 0.12 0.92 0.55 100 1005.7
20260506174508 47 259 0.0 0.0 0.14 0.88 0.51 100 1006.0
20260506173002 48 136 0.0 0.0 0.14 0.85 0.48 100 1006.1
20260506171502 49 148 0.0 0.0 0.15 0.83 0.46 100 1005.7
20260506170001 48 117 0.0 0.0 0.14 0.80 0.43 100 1005.8
20260506164601 48 107 0.0 0.0 0.10 0.74 0.37 100 1005.4
20260506163110 48 314 0.0 0.0 0.10 0.71 0.34 100 1005.6
20260506161555 48 240 0.0 0.0 0.09 0.68 0.31 100 1005.7
20260506160054 48 323 0.0 0.0 0.09 0.66 0.28 100 1005.8
20260506154522 48 150 0.0 0.0 0.08 0.63 0.26 100 1006.2
20260506153020 48 274 0.0 0.0 0.08 0.61 0.24 100 1006.4